This demonstration page uses our WeatherBlox Daily Observations layout. Learn more.

Left ArrowRight Arrow

Hourly Observations for March 4, 2015

Temp ( °F °C ) Dew Point ( °F °C ) Humidity (%) Winds ( mph kmh ) Pressure ( in mb ) Visibility ( mi km ) Precip ( " mm )
12:16 am 00:16 Cloudy 36 2 N/A N/A W 8 13 29.91 1013 4 6 N/A
12:35 am 00:35 Cloudy 36 2 N/A N/A W 8 13 29.91 1013 5 8 N/A
12:55 am 00:55 Cloudy 34 1 N/A N/A W 9 15 29.94 1014 5 8 N/A
1:16 am 01:16 Cloudy 34 1 N/A N/A WNW 7 11 29.94 1014 5 8 N/A
1:35 am 01:35 Cloudy 34 1 N/A N/A WNW 10 17 29.97 1015 7 11 N/A
1:56 am 01:56 Cloudy 34 1 N/A N/A NW 5 7 29.94 1014 7 11 N/A
2:16 am 02:16 Cloudy 34 1 N/A N/A NW 5 7 29.94 1014 7 11 N/A
2:35 am 02:35 Mostly Cloudy 34 1 N/A N/A WNW 7 11 29.97 1015 7 11 N/A
2:56 am 02:56 Partly Cloudy 34 1 N/A N/A NW 5 7 29.94 1014 10 16 N/A
3:16 am 03:16 Clear 34 1 N/A N/A NW 6 9 29.94 1014 10 16 N/A
3:35 am 03:35 Mostly Cloudy 34 1 N/A N/A NNW 6 9 29.94 1014 10 16 N/A
3:55 am 03:55 Partly Cloudy 34 1 N/A N/A NW 7 11 29.94 1014 10 16 N/A
4:16 am 04:16 Partly Cloudy 34 1 34 1 100 100 NW 8 13 29.94 1014 10 16 N/A
4:35 am 04:35 Cloudy 34 1 32 undefined 93 93 NW 6 9 29.94 1014 10 16 N/A
4:55 am 04:55 Cloudy 34 1 27 -3 75 75 NW 6 9 29.97 1015 10 16 N/A
5:16 am 05:16 Cloudy 32 undefined 25 -4 75 75 WNW 3 6 29.97 1015 10 16 N/A
5:35 am 05:35 Cloudy 32 undefined 25 -4 75 75 WNW 7 11 30.00 1016 10 16 N/A
5:55 am 05:55 Cloudy 32 undefined 25 -4 75 75 NW 6 9 29.97 1015 10 16 N/A
6:16 am 06:16 Partly Cloudy 32 undefined 25 -4 75 75 NW 6 9 30.00 1016 10 16 N/A
6:35 am 06:35 Clear 32 undefined 27 -3 80 80 NW 7 11 30.00 1016 10 16 N/A
6:56 am 06:56 Partly Cloudy 32 undefined 25 -4 75 75 NW 7 11 30.00 1016 10 16 N/A
7:16 am 07:16 Sunny 32 undefined 25 -4 75 75 NW 9 15 30.03 1017 7 11 N/A
7:35 am 07:35 Sunny 32 undefined 25 -4 75 75 NW 8 13 30.03 1017 7 11 N/A
7:56 am 07:56 Sunny 32 undefined 25 -4 75 75 NNW 10 17 30.03 1017 7 11 N/A
8:16 am 08:16 Sunny 32 undefined 23 -5 69 69 NW 10 17 30.06 1018 7 11 N/A
8:35 am 08:35 Sunny 32 undefined 23 -5 69 69 NW 9 15 30.06 1018 5 8 N/A
8:56 am 08:56 Partly Cloudy 32 undefined 23 -5 69 69 NNW 10 17 30.06 1018 5 8 N/A
9:16 am 09:16 Partly Cloudy 32 undefined 23 -5 69 69 NNW 9 15 30.06 1018 7 11 N/A
9:35 am 09:35 Partly Cloudy 32 undefined 23 -5 69 69 NNW 9 15 30.06 1018 7 11 N/A
9:56 am 09:56 Partly Cloudy 32 undefined 23 -5 69 69 NNW 8 13 30.06 1018 5 8 N/A
10:15 am 10:15 Partly Cloudy 32 undefined 23 -5 69 69 NNW 9 15 30.06 1018 7 11 N/A
10:35 am 10:35 Cloudy 32 undefined 23 -5 69 69 NNW 10 17 30.09 1019 5 8 N/A
10:56 am 10:56 Cloudy 32 undefined 21 -6 64 64 NW 12 19 30.09 1019 7 11 N/A
11:15 am 11:15 Cloudy 32 undefined 21 -6 64 64 NW 9 15 30.09 1019 7 11 N/A
11:35 am 11:35 Cloudy 32 undefined 21 -6 64 64 NW 12 19 30.09 1019 7 11 N/A
11:56 am 11:56 Cloudy 32 undefined 21 -6 64 64 NW 9 15 30.09 1019 7 11 N/A
12:15 pm 12:15 Cloudy 32 undefined 21 -6 64 64 WNW 9 15 30.09 1019 7 11 N/A
12:35 pm 12:35 Cloudy 32 undefined 19 -7 60 60 NNW 9 15 30.12 1020 7 11 N/A
12:56 pm 12:56 Cloudy 32 undefined 19 -7 60 60 WNW 12 19 30.12 1020 10 16 N/A
1:15 pm 13:15 Cloudy 32 undefined 19 -7 60 60 NW 10 17 30.12 1020 10 16 N/A
1:35 pm 13:35 Mostly Cloudy 32 undefined 18 -8 55 55 WNW 10 17 30.12 1020 10 16 N/A
2:15 pm 14:15 Mostly Cloudy 30 -1 18 -8 59 59 NW 12 19 30.12 1020 10 16 N/A
2:35 pm 14:35 Mostly Cloudy 30 -1 16 -9 55 55 NW 14 22 30.12 1020 10 16 N/A
2:56 pm 14:56 Partly Cloudy 28 -2 16 -9 59 59 WNW 15 24 30.12 1020 10 16 N/A
3:15 pm 15:15 Sunny 28 -2 16 -9 59 59 NW 13 20 30.12 1020 10 16 N/A
3:35 pm 15:35 Sunny 27 -3 16 -9 64 64 NNW 17 28 30.12 1020 10 16 N/A
3:56 pm 15:56 Sunny 27 -3 16 -9 64 64 NW 15 24 30.12 1020 10 16 N/A
4:15 pm 16:15 Sunny 25 -4 14 -10 63 63 NW 12 19 30.15 1021 10 16 N/A
4:35 pm 16:35 Sunny 25 -4 14 -10 63 63 NW 13 20 30.15 1021 10 16 N/A
4:56 pm 16:56 Cloudy 25 -4 16 -9 69 69 NW 13 20 30.15 1021 2 2 N/A
5:15 pm 17:15 Cloudy 23 -5 16 -9 74 74 NW 13 20 30.18 1022 2 3 N/A
5:35 pm 17:35 Cloudy 23 -5 14 -10 68 68 NW 12 19 30.21 1023 4 6 N/A
5:56 pm 17:56 Cloudy 23 -5 12 -11 63 63 NW 12 19 30.21 1023 5 8 N/A
6:15 pm 18:15 Mostly Cloudy 23 -5 12 -11 63 63 NW 9 15 30.21 1023 5 8 N/A
6:35 pm 18:35 Cloudy 23 -5 12 -11 63 63 NNW 14 22 30.24 1024 10 16 N/A
6:56 pm 18:56 Mostly Cloudy 21 -6 10 -12 63 63 NW 13 20 30.24 1024 10 16 N/A
7:15 pm 19:15 Partly Cloudy 21 -6 10 -12 63 63 NW 12 19 30.27 1025 10 16 N/A
7:36 pm 19:36 Partly Cloudy 21 -6 10 -12 63 63 NNW 12 19 30.27 1025 10 16 N/A
7:56 pm 19:56 Clear 21 -6 9 -13 58 58 NNW 10 17 30.27 1025 10 16 N/A
8:15 pm 20:15 Partly Cloudy 21 -6 9 -13 58 58 NNW 10 17 30.27 1025 10 16 N/A
8:36 pm 20:36 Clear 21 -6 9 -13 58 58 NW 10 17 30.27 1025 10 16 N/A
8:56 pm 20:56 Partly Cloudy 21 -6 9 -13 58 58 NW 9 15 30.27 1025 10 16 N/A
9:15 pm 21:15 Partly Cloudy 21 -6 9 -13 58 58 NNW 10 17 30.27 1025 10 16 N/A
9:36 pm 21:36 Clear 21 -6 9 -13 58 58 NNW 13 20 30.30 1026 10 16 N/A
9:55 pm 21:55 Clear 21 -6 9 -13 58 58 NNW 12 19 30.30 1026 10 16 N/A
10:15 pm 22:15 Clear 21 -6 7 -14 54 54 N 10 17 30.30 1026 10 16 N/A
10:36 pm 22:36 Clear 21 -6 3 -16 45 45 N 12 19 30.33 1027 10 16 N/A
10:55 pm 22:55 Clear 19 -7 1 -17 45 45 N 14 22 30.33 1027 10 16 N/A
11:15 pm 23:15 Clear 19 -7 1 -17 45 45 N 13 20 30.33 1027 10 16 N/A
11:36 pm 23:36 Clear 19 -7 1 -17 45 45 N 12 19 30.33 1027 10 16 N/A
11:55 pm 23:55 Clear 19 -7 1 -17 45 45 N 13 20 30.33 1027 10 16 N/A

Powered by AerisWeather